Location: Majestic Skies Ranch
(34.0000°N, 105.9300°W)
Time: 23:46:26
(UTC-06:00)

ISS - Visible Passes

Search period start: 31 July 2014 00:00
Search period end: 10 August 2014 00:00
Orbit: 411 x 419 km, 51.6° (Epoch: 31 July)

Date Brightness Start Highest point End Pass type
(mag) Time Alt. Az. Time Alt. Az. Time Alt. Az.
31 Jul -0.1 04:55:59 10° N 04:58:05 15° NNE 05:00:11 10° ENE visible
01 Aug 0.3 04:08:21 10° NNE 04:09:00 10° NNE 04:09:40 10° NE visible
01 Aug -2.9 05:42:53 10° NW 05:46:15 70° NE 05:49:34 10° SE visible
01 Aug -1.5 20:47:22 10° SSE 20:49:16 14° SE 20:50:14 13° ESE visible
01 Aug -0.8 22:22:32 10° WSW 22:23:26 17° WSW 22:23:26 17° WSW visible
02 Aug -1.6 04:54:13 10° NNW 04:57:21 36° NE 05:00:29 10° ESE visible
02 Aug -3.3 21:33:30 10° SW 21:36:49 80° NW 21:40:09 10° NE visible
02 Aug 0.3 23:12:57 10° NW 23:14:00 11° NNW 23:14:16 11° NNW visible
03 Aug -0.6 04:05:42 10° NNW 04:08:23 22° NE 04:11:04 10° E visible
03 Aug -2.5 05:42:06 10° WNW 05:45:08 32° SW 05:48:09 10° SSE visible
03 Aug -3.1 20:44:48 10° SSW 20:48:00 48° SE 20:51:14 10° ENE visible
03 Aug -0.2 22:22:41 10° WNW 22:24:54 17° NNW 22:27:08 10° N visible
04 Aug 0.0 03:19:14 14° NNE 03:19:20 14° NNE 03:21:15 10° ENE visible
04 Aug -3.4 04:53:01 10° NW 04:56:21 66° SW 04:59:40 10° SE visible
04 Aug -0.9 21:33:02 10° W 21:35:53 26° NW 21:38:45 10° NNE visible
05 Aug -0.6 04:10:18 14° ESE 04:10:18 14° ESE 04:10:49 10° ESE visible
05 Aug -2.1 20:43:43 10° WSW 20:46:55 46° NW 20:50:09 10° NE visible
06 Aug 0.0 21:33:47 10° NW 21:35:09 12° NNW 21:36:32 10° N visible
07 Aug -0.3 20:43:40 10° WNW 20:46:03 18° NNW 20:48:26 10° NNE visible
